Regional Weather Roundup
Issued by NWS

Home | Current Version | Previous Version | Text Only | Print | Product List | Glossary Off
Versions: 1 2 3 4 5 6 7 8 9 10 11 12 13 14 15 16 17 18 19 20 21 22 23 24 25 26 27 28 29 30 31 32 33 34 35 36 37 38 39 40 41 42 43 44 45 46 47 48 49 50

933
ASUS43 KBIS 052102
RWRND

NORTH DAKOTA REGIONAL WEATHER ROUNDUP
NATIONAL WEATHER SERVICE BISMARCK ND
300 PM CST FRI FEB 05 2016

NOTE: "FAIR" INDICATES FEW OR NO CLOUDS BELOW 12,000 FEET WITH NO
SIGNIFICANT WEATHER AND/OR OBSTRUCTIONS TO VISIBILITY.


NDZ001>003-009>011-017-052200-
NORTHWEST NORTH DAKOTA

CITY           SKY/WX    TMP DP  RH WIND       PRES   REMARKS
WILLISTON      SUNNY     37  26  64 SW12      30.09F
MINOT          SUNNY     39  21  48 W15       30.07F
MINOT AFB      SUNNY     38  22  53 W15       30.06F
$$

NDZ018>021-031>035-040>046-052200-
SOUTHWEST NORTH DAKOTA

CITY           SKY/WX    TMP DP  RH WIND       PRES   REMARKS
BISMARCK       SUNNY     42  20  41 NW13      30.15F
DICKINSON      SUNNY     40  22  48 NW14      30.09F
GARRISON         N/A     38  22  52 W16       30.09F
HETTINGER ARPT SUNNY     43  20  39 W17       30.14F
$$

NDZ004>008-012>016-024-026-027-054-052200-
NORTHEAST NORTH DAKOTA

CITY           SKY/WX    TMP DP  RH WIND       PRES   REMARKS
GRAND FORKS    MOSUNNY   28  17  63 NW6       30.13F
GRND FRKS AFB  SUNNY     28  19  69 N1        30.12F
DEVILS LAKE    PTSUNNY   24  19  81 W13       30.12S WCI  12
$$

NDZ022-023-025-028>030-036>039-047>053-052200-
SOUTHEAST NORTH DAKOTA

CITY           SKY/WX    TMP DP  RH WIND       PRES   REMARKS
FARGO          SUNNY     30  22  72 W10       30.14R
JAMESTOWN      SUNNY     32  19  58 NW13      30.12S
$$





USA.gov is the U.S. government's official web portal to all federal, state and local government web resources and services.